Terminal Aerodrome Forecast
Issued by NWS Charleston, WV

Home | Current Version | Previous Version | Text Only | Print | Product List | Glossary On
Versions: 1 2 3 4 5 6 7 8 9 10 11 12 13 14 15 16 17 18 19 20 21 22 23 24 25
838
FTUS41 KRLX 241139
TAFHTS
TAF
KHTS 241139Z 2412/2512 00000KT 4SM BR SKC
     FM241230 26007KT P6SM FEW045=

USA.gov is the U.S. government's official web portal to all federal, state and local government web resources and services.